owner,sensor,date,latitude,longitude,vertical_datum,direction_of_sea_water_velocity,sea_water_speed,upward_sea_water_velocity,qcFlag 
TABS,ioos:station:wmo:42046:1,2009-07-01T00:00:00Z,27.8903,-94.0367,2.0,154.465917,16.40197854,-99999.0,'11111222,11111222,99999999' 
TABS,ioos:station:wmo:42046:1,2009-07-01T00:30:00Z,27.8903,-94.0367,2.0,163.6719492,16.25561134,-99999.0,'11111222,11111222,99999999' 
TABS,ioos:station:wmo:42046:1,2009-07-01T01:00:00Z,27.8903,-94.0367,2.0,162.2488214,10.33189721,-99999.0,'11111222,11111222,99999999' 
TABS,ioos:station:wmo:42046:1,2009-07-01T01:30:00Z,27.8903,-94.0367,2.0,180.1243451,9.200021739,-99999.0,'11133222,11111222,99999999' 
TABS,ioos:station:wmo:42046:1,2009-07-01T02:00:00Z,27.8903,-94.0367,2.0,215.9094286,16.11226241,-99999.0,'11111222,11111222,99999999' 
TABS,ioos:station:wmo:42046:1,2009-07-01T02:30:00Z,27.8903,-94.0367,2.0,241.2702076,21.90673412,-99999.0,'11111222,11111222,99999999' 
TABS,ioos:station:wmo:42046:1,2009-07-01T03:00:00Z,27.8903,-94.0367,2.0,256.9999349,25.47283455,-99999.0,'11111222,11111222,99999999' 
TABS,ioos:station:wmo:42046:1,2009-07-01T03:30:00Z,27.8903,-94.0367,2.0,260.4332342,19.91697015,-99999.0,'11111222,11111222,99999999' 
TABS,ioos:station:wmo:42046:1,2009-07-01T04:00:00Z,27.8903,-94.0367,2.0,275.4748681,21.48801061,-99999.0,'11111222,11111222,99999999' 
TABS,ioos:station:wmo:42046:1,2009-07-01T04:30:00Z,27.8903,-94.0367,2.0,284.8180581,18.4950615,-99999.0,'11111222,11111222,99999999' 
TABS,ioos:station:wmo:42046:1,2009-07-01T05:00:00Z,27.8903,-94.0367,2.0,288.3479192,16.58300335,-99999.0,'11111222,11111222,99999999' 
TABS,ioos:station:wmo:42046:1,2009-07-01T05:30:00Z,27.8903,-94.0367,2.0,308.7288752,11.71616405,-99999.0,'11111222,11111222,99999999' 
TABS,ioos:station:wmo:42046:1,2009-07-01T06:00:00Z,27.8903,-94.0367,2.0,326.3995666,12.45026104,-99999.0,'11111222,11111222,99999999' 
TABS,ioos:station:wmo:42046:1,2009-07-01T06:30:00Z,27.8903,-94.0367,2.0,345.4490429,13.49280178,-99999.0,'11111222,11111222,99999999' 
TABS,ioos:station:wmo:42046:1,2009-07-01T07:00:00Z,27.8903,-94.0367,2.0,12.19103012,14.1592973,-99999.0,'11111222,11111222,99999999' 
TABS,ioos:station:wmo:42046:1,2009-07-01T07:30:00Z,27.8903,-94.0367,2.0,12.56086405,19.49662791,-99999.0,'11111222,11111222,99999999' 
TABS,ioos:station:wmo:42046:1,2009-07-01T08:00:00Z,27.8903,-94.0367,2.0,19.49602538,18.78714986,-99999.0,'11111222,11111222,99999999' 
TABS,ioos:station:wmo:42046:1,2009-07-01T08:30:00Z,27.8903,-94.0367,2.0,47.39688609,15.55581563,-99999.0,'11111222,11111222,99999999' 
TABS,ioos:station:wmo:42046:1,2009-07-01T09:00:00Z,27.8903,-94.0367,2.0,60.76560367,19.49283202,-99999.0,'11111222,11111222,99999999' 
TABS,ioos:station:wmo:42046:1,2009-07-01T09:30:00Z,27.8903,-94.0367,2.0,63.65630993,24.31518456,-99999.0,'11111222,11111222,99999999' 
TABS,ioos:station:wmo:42046:1,2009-07-01T10:00:00Z,27.8903,-94.0367,2.0,73.84184213,24.0396381,-99999.0,'11111222,11111222,99999999' 
TABS,ioos:station:wmo:42046:1,2009-07-01T10:30:00Z,27.8903,-94.0367,2.0,72.74213813,25.2466275,-99999.0,'11111222,11111222,99999999' 
TABS,ioos:station:wmo:42046:1,2009-07-01T11:00:00Z,27.8903,-94.0367,2.0,77.22969217,24.70100605,-99999.0,'11111222,11111222,99999999' 
TABS,ioos:station:wmo:42046:1,2009-07-01T11:30:00Z,27.8903,-94.0367,2.0,76.95687522,27.42762294,-99999.0,'11111222,11111222,99999999' 
TABS,ioos:station:wmo:42046:1,2009-07-01T12:00:00Z,27.8903,-94.0367,2.0,79.90896636,26.36789715,-99999.0,'11111222,11111222,99999999' 
TABS,ioos:station:wmo:42046:1,2009-07-01T12:30:00Z,27.8903,-94.0367,2.0,80.90541373,26.12846915,-99999.0,'11111222,11111222,99999999' 
TABS,ioos:station:wmo:42046:1,2009-07-01T13:00:00Z,27.8903,-94.0367,2.0,75.19122593,29.49986441,-99999.0,'11111222,11111222,99999999' 
TABS,ioos:station:wmo:42046:1,2009-07-01T13:30:00Z,27.8903,-94.0367,2.0,78.55878256,33.37317036,-99999.0,'11111222,11111222,99999999' 
TABS,ioos:station:wmo:42046:1,2009-07-01T14:00:00Z,27.8903,-94.0367,2.0,79.27430548,30.19757109,-99999.0,'11111222,11111222,99999999' 
TABS,ioos:station:wmo:42046:1,2009-07-01T14:30:00Z,27.8903,-94.0367,2.0,86.33199396,32.35628223,-99999.0,'11111222,11111222,99999999' 
TABS,ioos:station:wmo:42046:1,2009-07-01T15:00:00Z,27.8903,-94.0367,2.0,96.36834356,26.95633877,-99999.0,'11111222,11111222,99999999' 
TABS,ioos:station:wmo:42046:1,2009-07-01T15:30:00Z,27.8903,-94.0367,2.0,101.8623416,30.30723511,-99999.0,'11111222,11111222,99999999' 
TABS,ioos:station:wmo:42046:1,2009-07-01T16:00:00Z,27.8903,-94.0367,2.0,103.092686,31.51935279,-99999.0,'11111222,11111222,99999999' 
TABS,ioos:station:wmo:42046:1,2009-07-01T16:30:00Z,27.8903,-94.0367,2.0,106.8753836,29.28088796,-99999.0,'11111222,11111222,99999999' 
TABS,ioos:station:wmo:42046:1,2009-07-01T17:00:00Z,27.8903,-94.0367,2.0,111.5299162,30.57322358,-99999.0,'11111222,11111222,99999999' 
TABS,ioos:station:wmo:42046:1,2009-07-01T17:30:00Z,27.8903,-94.0367,2.0,108.2011835,32.55908168,-99999.0,'11111222,11111222,99999999' 
TABS,ioos:station:wmo:42046:1,2009-07-01T18:00:00Z,27.8903,-94.0367,2.0,111.9142594,32.98327,-99999.0,'11111222,11111222,99999999' 
TABS,ioos:station:wmo:42046:1,2009-07-01T18:30:00Z,27.8903,-94.0367,2.0,115.0366442,33.19953162,-99999.0,'11111222,11111222,99999999' 
TABS,ioos:station:wmo:42046:1,2009-07-01T19:00:00Z,27.8903,-94.0367,2.0,114.8299986,32.79131745,-99999.0,'11111222,11111222,99999999' 
TABS,ioos:station:wmo:42046:1,2009-07-01T19:30:00Z,27.8903,-94.0367,2.0,114.7103352,33.9926242,-99999.0,'11111222,11111222,99999999' 
TABS,ioos:station:wmo:42046:1,2009-07-01T20:00:00Z,27.8903,-94.0367,2.0,110.5872294,42.94240329,-99999.0,'11111222,11111222,99999999' 
TABS,ioos:station:wmo:42046:1,2009-07-01T20:30:00Z,27.8903,-94.0367,2.0,113.8776864,41.873937,-99999.0,'11111222,11111222,99999999' 
TABS,ioos:station:wmo:42046:1,2009-07-01T21:00:00Z,27.8903,-94.0367,2.0,115.2373152,44.58574884,-99999.0,'11111222,11111222,99999999' 
TABS,ioos:station:wmo:42046:1,2009-07-01T21:30:00Z,27.8903,-94.0367,2.0,112.6820254,46.75618141,-99999.0,'11111222,11111222,99999999' 
TABS,ioos:station:wmo:42046:1,2009-07-01T22:00:00Z,27.8903,-94.0367,2.0,110.7510519,43.66245298,-99999.0,'11111222,11111222,99999999' 
TABS,ioos:station:wmo:42046:1,2009-07-01T22:30:00Z,27.8903,-94.0367,2.0,110.5186132,43.05125434,-99999.0,'11111222,11111222,99999999' 
TABS,ioos:station:wmo:42046:1,2009-07-01T23:00:00Z,27.8903,-94.0367,2.0,117.9321064,40.11306146,-99999.0,'11111222,11111222,99999999' 
TABS,ioos:station:wmo:42046:1,2009-07-01T23:30:00Z,27.8903,-94.0367,2.0,112.800963,35.76479414,-99999.0,'11111222,11111222,99999999' 
TABS,ioos:station:wmo:42046:1,2009-07-02T00:00:00Z,27.8903,-94.0367,2.0,113.7760763,34.65090186,-99999.0,'11111222,11111222,99999999' 
TABS,ioos:station:wmo:42046:1,2009-07-02T00:30:00Z,27.8903,-94.0367,2.0,113.9281265,30.52334189,-99999.0,'11111222,11111222,99999999' 
TABS,ioos:station:wmo:42046:1,2009-07-02T01:00:00Z,27.8903,-94.0367,2.0,115.5942712,28.77338006,-99999.0,'11111222,11111222,99999999' 
TABS,ioos:station:wmo:42046:1,2009-07-02T01:30:00Z,27.8903,-94.0367,2.0,119.2060791,27.17473091,-99999.0,'11111222,11111222,99999999' 
TABS,ioos:station:wmo:42046:1,2009-07-02T02:00:00Z,27.8903,-94.0367,2.0,121.4775681,24.85800475,-99999.0,'11111222,11111222,99999999' 
TABS,ioos:station:wmo:42046:1,2009-07-02T02:30:00Z,27.8903,-94.0367,2.0,119.0466125,21.07010441,-99999.0,'11111222,11111222,99999999' 
TABS,ioos:station:wmo:42046:1,2009-07-02T03:00:00Z,27.8903,-94.0367,2.0,75.08972111,3.497770719,-99999.0,'11133222,11111222,99999999' 
TABS,ioos:station:wmo:42046:1,2009-07-02T03:30:00Z,27.8903,-94.0367,2.0,136.0990213,15.11365277,-99999.0,'11111222,11111222,99999999' 
TABS,ioos:station:wmo:42046:1,2009-07-02T04:00:00Z,27.8903,-94.0367,2.0,190.4564635,10.79935183,-99999.0,'11111222,11111222,99999999' 
TABS,ioos:station:wmo:42046:1,2009-07-02T04:30:00Z,27.8903,-94.0367,2.0,225.8343962,10.67844558,-99999.0,'11111222,11111222,99999999' 
TABS,ioos:station:wmo:42046:1,2009-07-02T05:00:00Z,27.8903,-94.0367,2.0,196.9459109,5.111966354,-99999.0,'11133222,11111222,99999999' 
TABS,ioos:station:wmo:42046:1,2009-07-02T05:30:00Z,27.8903,-94.0367,2.0,267.5001653,2.522399651,-99999.0,'11133222,11111222,99999999' 
TABS,ioos:station:wmo:42046:1,2009-07-02T06:00:00Z,27.8903,-94.0367,2.0,306.8279633,5.422001475,-99999.0,'11133222,11111222,99999999' 
TABS,ioos:station:wmo:42046:1,2009-07-02T06:30:00Z,27.8903,-94.0367,2.0,328.3453968,11.08990532,-99999.0,'11111222,11111222,99999999' 
TABS,ioos:station:wmo:42046:1,2009-07-02T07:00:00Z,27.8903,-94.0367,2.0,352.2459429,7.11506149,-99999.0,'11133222,11111222,99999999' 
TABS,ioos:station:wmo:42046:1,2009-07-02T07:30:00Z,27.8903,-94.0367,2.0,345.7432084,12.5876924,-99999.0,'11111222,11111222,99999999' 
TABS,ioos:station:wmo:42046:1,2009-07-02T08:00:00Z,27.8903,-94.0367,2.0,344.1734394,13.27317972,-99999.0,'11111222,11111222,99999999' 
TABS,ioos:station:wmo:42046:1,2009-07-02T08:30:00Z,27.8903,-94.0367,2.0,355.5626577,13.57068163,-99999.0,'11111222,11111222,99999999' 
TABS,ioos:station:wmo:42046:1,2009-07-02T09:00:00Z,27.8903,-94.0367,2.0,21.31016142,16.45506913,-99999.0,'11111222,11111222,99999999' 
TABS,ioos:station:wmo:42046:1,2009-07-02T09:30:00Z,27.8903,-94.0367,2.0,25.3650473,16.01375971,-99999.0,'11111222,11111222,99999999' 
TABS,ioos:station:wmo:42046:1,2009-07-02T10:00:00Z,27.8903,-94.0367,2.0,39.33327816,13.8207706,-99999.0,'11111222,11111222,99999999' 
TABS,ioos:station:wmo:42046:1,2009-07-02T10:30:00Z,27.8903,-94.0367,2.0,44.13954504,22.12786705,-99999.0,'11111222,11111222,99999999' 
TABS,ioos:station:wmo:42046:1,2009-07-02T11:00:00Z,27.8903,-94.0367,2.0,56.39751886,21.79142262,-99999.0,'11111222,11111222,99999999' 
TABS,ioos:station:wmo:42046:1,2009-07-02T11:30:00Z,27.8903,-94.0367,2.0,50.74273314,18.86837831,-99999.0,'11111222,11111222,99999999' 
TABS,ioos:station:wmo:42046:1,2009-07-02T12:00:00Z,27.8903,-94.0367,2.0,59.13195274,21.57626705,-99999.0,'11111222,11111222,99999999' 
TABS,ioos:station:wmo:42046:1,2009-07-02T12:30:00Z,27.8903,-94.0367,2.0,81.60124432,23.82551783,-99999.0,'11111222,11111222,99999999' 
TABS,ioos:station:wmo:42046:1,2009-07-02T13:00:00Z,27.8903,-94.0367,2.0,77.92884481,23.76548969,-99999.0,'11111222,11111222,99999999' 
TABS,ioos:station:wmo:42046:1,2009-07-02T13:30:00Z,27.8903,-94.0367,2.0,79.3213288,25.63393454,-99999.0,'11111222,11111222,99999999' 
TABS,ioos:station:wmo:42046:1,2009-07-02T14:00:00Z,27.8903,-94.0367,2.0,81.12998911,24.96860829,-99999.0,'11111222,11111222,99999999' 
TABS,ioos:station:wmo:42046:1,2009-07-02T14:30:00Z,27.8903,-94.0367,2.0,78.33682733,27.35479848,-99999.0,'11111222,11111222,99999999' 
TABS,ioos:station:wmo:42046:1,2009-07-02T15:00:00Z,27.8903,-94.0367,2.0,82.96904314,24.18184443,-99999.0,'11111222,11111222,99999999' 
TABS,ioos:station:wmo:42046:1,2009-07-02T15:30:00Z,27.8903,-94.0367,2.0,81.78703281,28.35076895,-99999.0,'11111222,11111222,99999999' 
TABS,ioos:station:wmo:42046:1,2009-07-02T16:00:00Z,27.8903,-94.0367,2.0,90.53620009,28.8512634,-99999.0,'11111222,11111222,99999999' 
TABS,ioos:station:wmo:42046:1,2009-07-02T16:30:00Z,27.8903,-94.0367,2.0,103.9798681,29.59663663,-99999.0,'11111222,11111222,99999999' 
TABS,ioos:station:wmo:42046:1,2009-07-02T17:00:00Z,27.8903,-94.0367,2.0,108.2976709,26.40509421,-99999.0,'11111222,11111222,99999999' 
TABS,ioos:station:wmo:42046:1,2009-07-02T17:30:00Z,27.8903,-94.0367,2.0,107.4991254,26.13971117,-99999.0,'11111222,11111222,99999999' 
TABS,ioos:station:wmo:42046:1,2009-07-02T18:00:00Z,27.8903,-94.0367,2.0,110.3629883,30.92244654,-99999.0,'11111222,11111222,99999999' 
TABS,ioos:station:wmo:42046:1,2009-07-02T18:30:00Z,27.8903,-94.0367,2.0,112.4321998,26.31091028,-99999.0,'11111222,11111222,99999999' 
TABS,ioos:station:wmo:42046:1,2009-07-02T19:00:00Z,27.8903,-94.0367,2.0,115.6386116,8.851513995,-99999.0,'11133222,11111222,99999999' 
TABS,ioos:station:wmo:42046:1,2009-07-02T19:30:00Z,27.8903,-94.0367,2.0,77.6256309,6.439604025,-99999.0,'11133222,11111222,99999999' 
TABS,ioos:station:wmo:42046:1,2009-07-02T20:00:00Z,27.8903,-94.0367,2.0,100.4285041,11.60164213,-99999.0,'11111222,11111222,99999999' 
TABS,ioos:station:wmo:42046:1,2009-07-02T20:30:00Z,27.8903,-94.0367,2.0,70.52016666,3.988295375,-99999.0,'11133222,11111222,99999999' 
TABS,ioos:station:wmo:42046:1,2009-07-02T21:00:00Z,27.8903,-94.0367,2.0,104.8993944,13.84550469,-99999.0,'11111222,11111222,99999999' 
TABS,ioos:station:wmo:42046:1,2009-07-02T21:30:00Z,27.8903,-94.0367,2.0,109.5652027,27.41279446,-99999.0,'11111222,11111222,99999999' 
TABS,ioos:station:wmo:42046:1,2009-07-02T22:00:00Z,27.8903,-94.0367,2.0,135.7374223,24.17091227,-99999.0,'11111222,11111222,99999999' 
TABS,ioos:station:wmo:42046:1,2009-07-02T22:30:00Z,27.8903,-94.0367,2.0,121.672813,20.09259814,-99999.0,'11111222,11111222,99999999' 
TABS,ioos:station:wmo:42046:1,2009-07-02T23:00:00Z,27.8903,-94.0367,2.0,109.2338908,23.13114783,-99999.0,'11111222,11111222,99999999' 
TABS,ioos:station:wmo:42046:1,2009-07-02T23:30:00Z,27.8903,-94.0367,2.0,108.8758667,23.83163024,-99999.0,'11111222,11111222,99999999' 
TABS,ioos:station:wmo:42046:1,2009-07-03T00:00:00Z,27.8903,-94.0367,2.0,103.6406849,24.59369838,-99999.0,'11111222,11111222,99999999' 
TABS,ioos:station:wmo:42046:1,2009-07-03T00:30:00Z,27.8903,-94.0367,2.0,92.05682075,25.07615601,-99999.0,'11111222,11111222,99999999' 
TABS,ioos:station:wmo:42046:1,2009-07-03T01:00:00Z,27.8903,-94.0367,2.0,94.73506486,26.65095871,-99999.0,'11111222,11111222,99999999' 
TABS,ioos:station:wmo:42046:1,2009-07-03T01:30:00Z,27.8903,-94.0367,2.0,88.96738569,27.74450576,-99999.0,'11111222,11111222,99999999' 
TABS,ioos:station:wmo:42046:1,2009-07-03T02:00:00Z,27.8903,-94.0367,2.0,88.79040667,28.89643923,-99999.0,'11111222,11111222,99999999' 
TABS,ioos:station:wmo:42046:1,2009-07-03T02:30:00Z,27.8903,-94.0367,2.0,89.71428605,30.080374,-99999.0,'11111222,11111222,99999999' 
TABS,ioos:station:wmo:42046:1,2009-07-03T03:00:00Z,27.8903,-94.0367,2.0,90.41465602,31.78083227,-99999.0,'11111222,11111222,99999999' 
TABS,ioos:station:wmo:42046:1,2009-07-03T03:30:00Z,27.8903,-94.0367,2.0,70.98888678,23.26921572,-99999.0,'11111222,11111222,99999999' 
TABS,ioos:station:wmo:42046:1,2009-07-03T04:00:00Z,27.8903,-94.0367,2.0,48.96866741,14.3037128,-99999.0,'11111222,11111222,99999999' 
TABS,ioos:station:wmo:42046:1,2009-07-03T04:30:00Z,27.8903,-94.0367,2.0,128.5609503,17.21349761,-99999.0,'11111222,11111222,99999999' 
TABS,ioos:station:wmo:42046:1,2009-07-03T05:00:00Z,27.8903,-94.0367,2.0,138.458611,5.157130985,-99999.0,'11133222,11111222,99999999' 
TABS,ioos:station:wmo:42046:1,2009-07-03T05:30:00Z,27.8903,-94.0367,2.0,15.17831148,7.180480485,-99999.0,'11133222,11111222,99999999' 
TABS,ioos:station:wmo:42046:1,2009-07-03T06:00:00Z,27.8903,-94.0367,2.0,48.64409372,10.45803997,-99999.0,'11111222,11111222,99999999' 
TABS,ioos:station:wmo:42046:1,2009-07-03T06:30:00Z,27.8903,-94.0367,2.0,32.25237831,7.626755536,-99999.0,'11133222,11111222,99999999' 
TABS,ioos:station:wmo:42046:1,2009-07-03T07:00:00Z,27.8903,-94.0367,2.0,22.75290565,9.618487407,-99999.0,'11133222,11111222,99999999' 
TABS,ioos:station:wmo:42046:1,2009-07-03T07:30:00Z,27.8903,-94.0367,2.0,48.27993608,9.887406131,-99999.0,'11133222,11111222,99999999' 
TABS,ioos:station:wmo:42046:1,2009-07-03T08:00:00Z,27.8903,-94.0367,2.0,67.11898145,11.13626957,-99999.0,'11111222,11111222,99999999' 
TABS,ioos:station:wmo:42046:1,2009-07-03T08:30:00Z,27.8903,-94.0367,2.0,52.57225667,11.9125648,-99999.0,'11111222,11111222,99999999' 
TABS,ioos:station:wmo:42046:1,2009-07-03T09:00:00Z,27.8903,-94.0367,2.0,46.30205486,11.8258784,-99999.0,'11111222,11111222,99999999' 
TABS,ioos:station:wmo:42046:1,2009-07-03T09:30:00Z,27.8903,-94.0367,2.0,43.49770265,14.83312846,-99999.0,'11111222,11111222,99999999' 
TABS,ioos:station:wmo:42046:1,2009-07-03T10:00:00Z,27.8903,-94.0367,2.0,51.61938557,16.9919069,-99999.0,'11111222,11111222,99999999' 
TABS,ioos:station:wmo:42046:1,2009-07-03T10:30:00Z,27.8903,-94.0367,2.0,52.42638744,13.67703184,-99999.0,'11111222,11111222,99999999' 
TABS,ioos:station:wmo:42046:1,2009-07-03T11:00:00Z,27.8903,-94.0367,2.0,80.78349334,11.1134738,-99999.0,'11111222,11111222,99999999' 
TABS,ioos:station:wmo:42046:1,2009-07-03T11:30:00Z,27.8903,-94.0367,2.0,71.04679124,16.77973182,-99999.0,'11111222,11111222,99999999' 
TABS,ioos:station:wmo:42046:1,2009-07-03T12:00:00Z,27.8903,-94.0367,2.0,85.88467292,9.614790689,-99999.0,'11133222,11111222,99999999' 
TABS,ioos:station:wmo:42046:1,2009-07-03T12:30:00Z,27.8903,-94.0367,2.0,84.29910099,11.77825539,-99999.0,'11111222,11111222,99999999' 
TABS,ioos:station:wmo:42046:1,2009-07-03T13:00:00Z,27.8903,-94.0367,2.0,81.11366849,12.42919145,-99999.0,'11111222,11111222,99999999' 
TABS,ioos:station:wmo:42046:1,2009-07-03T13:30:00Z,27.8903,-94.0367,2.0,62.37037262,8.905560061,-99999.0,'11133222,11111222,99999999' 
TABS,ioos:station:wmo:42046:1,2009-07-03T14:00:00Z,27.8903,-94.0367,2.0,73.45891421,20.47744613,-99999.0,'11111222,11111222,99999999' 
TABS,ioos:station:wmo:42046:1,2009-07-03T14:30:00Z,27.8903,-94.0367,2.0,82.31081049,22.42160565,-99999.0,'11111222,11111222,99999999' 
TABS,ioos:station:wmo:42046:1,2009-07-03T15:00:00Z,27.8903,-94.0367,2.0,70.40407917,27.31187471,-99999.0,'11111222,11111222,99999999' 
TABS,ioos:station:wmo:42046:1,2009-07-03T15:30:00Z,27.8903,-94.0367,2.0,77.48494322,31.70330267,-99999.0,'11111222,11111222,99999999' 
TABS,ioos:station:wmo:42046:1,2009-07-03T16:00:00Z,27.8903,-94.0367,2.0,83.36962341,31.17853268,-99999.0,'11111222,11111222,99999999' 
TABS,ioos:station:wmo:42046:1,2009-07-03T16:30:00Z,27.8903,-94.0367,2.0,77.6268689,32.34119664,-99999.0,'11111222,11111222,99999999' 
TABS,ioos:station:wmo:42046:1,2009-07-03T17:00:00Z,27.8903,-94.0367,2.0,81.6502394,32.09015581,-99999.0,'11111222,11111222,99999999' 
TABS,ioos:station:wmo:42046:1,2009-07-03T17:30:00Z,27.8903,-94.0367,2.0,88.95807513,34.64572845,-99999.0,'11111222,11111222,99999999' 
TABS,ioos:station:wmo:42046:1,2009-07-03T18:00:00Z,27.8903,-94.0367,2.0,86.61649822,33.54847985,-99999.0,'11111222,11111222,99999999' 
TABS,ioos:station:wmo:42046:1,2009-07-03T18:30:00Z,27.8903,-94.0367,2.0,92.95152219,31.46173549,-99999.0,'11111222,11111222,99999999' 
TABS,ioos:station:wmo:42046:1,2009-07-03T19:00:00Z,27.8903,-94.0367,2.0,98.69199523,30.57111055,-99999.0,'11111222,11111222,99999999' 
TABS,ioos:station:wmo:42046:1,2009-07-03T19:30:00Z,27.8903,-94.0367,2.0,97.35957845,33.02204415,-99999.0,'11111222,11111222,99999999' 
TABS,ioos:station:wmo:42046:1,2009-07-03T20:00:00Z,27.8903,-94.0367,2.0,96.71101734,27.98172618,-99999.0,'11111222,11111222,99999999' 
TABS,ioos:station:wmo:42046:1,2009-07-03T20:30:00Z,27.8903,-94.0367,2.0,100.6255845,29.55680971,-99999.0,'11111222,11111222,99999999' 
TABS,ioos:station:wmo:42046:1,2009-07-03T21:00:00Z,27.8903,-94.0367,2.0,107.2145358,30.88348426,-99999.0,'11111222,11111222,99999999' 
TABS,ioos:station:wmo:42046:1,2009-07-03T21:30:00Z,27.8903,-94.0367,2.0,105.1938645,30.37165949,-99999.0,'11111222,11111222,99999999' 
TABS,ioos:station:wmo:42046:1,2009-07-03T22:00:00Z,27.8903,-94.0367,2.0,110.9444684,28.3105634,-99999.0,'11111222,11111222,99999999' 
TABS,ioos:station:wmo:42046:1,2009-07-03T22:30:00Z,27.8903,-94.0367,2.0,110.9973998,29.77732191,-99999.0,'11111222,11111222,99999999' 
TABS,ioos:station:wmo:42046:1,2009-07-03T23:00:00Z,27.8903,-94.0367,2.0,115.2354159,29.29590586,-99999.0,'11111222,11111222,99999999' 
TABS,ioos:station:wmo:42046:1,2009-07-03T23:30:00Z,27.8903,-94.0367,2.0,108.5875875,27.29371539,-99999.0,'11111222,11111222,99999999' 
TABS,ioos:station:wmo:42046:1,2009-07-04T00:00:00Z,27.8903,-94.0367,2.0,120.9852563,27.33001647,-99999.0,'11111222,11111222,99999999' 
TABS,ioos:station:wmo:42046:1,2009-07-04T00:30:00Z,27.8903,-94.0367,2.0,123.1668359,27.034441,-99999.0,'11111222,11111222,99999999' 
TABS,ioos:station:wmo:42046:1,2009-07-04T01:00:00Z,27.8903,-94.0367,2.0,122.8278758,26.35956373,-99999.0,'11111222,11111222,99999999' 
TABS,ioos:station:wmo:42046:1,2009-07-04T01:30:00Z,27.8903,-94.0367,2.0,140.10523,9.058620204,-99999.0,'11133222,11111222,99999999' 
TABS,ioos:station:wmo:42046:1,2009-07-04T02:00:00Z,27.8903,-94.0367,2.0,133.1630546,7.279869504,-99999.0,'11133222,11111222,99999999' 
TABS,ioos:station:wmo:42046:1,2009-07-04T02:30:00Z,27.8903,-94.0367,2.0,139.9770485,9.454311186,-99999.0,'11133222,11111222,99999999' 
TABS,ioos:station:wmo:42046:1,2009-07-04T03:00:00Z,27.8903,-94.0367,2.0,132.6380667,9.094047504,-99999.0,'11133222,11111222,99999999' 
TABS,ioos:station:wmo:42046:1,2009-07-04T03:30:00Z,27.8903,-94.0367,2.0,119.8612661,7.933278011,-99999.0,'11133222,11111222,99999999' 
TABS,ioos:station:wmo:42046:1,2009-07-04T04:00:00Z,27.8903,-94.0367,2.0,119.4912928,4.204818664,-99999.0,'11133222,11111222,99999999' 
TABS,ioos:station:wmo:42046:1,2009-07-04T04:30:00Z,27.8903,-94.0367,2.0,103.9247407,3.739906416,-99999.0,'11133222,11111222,99999999' 
TABS,ioos:station:wmo:42046:1,2009-07-04T05:00:00Z,27.8903,-94.0367,2.0,69.82939376,6.786199231,-99999.0,'11133222,11111222,99999999' 
TABS,ioos:station:wmo:42046:1,2009-07-04T05:30:00Z,27.8903,-94.0367,2.0,54.89400276,6.172924752,-99999.0,'11133222,11111222,99999999' 
TABS,ioos:station:wmo:42046:1,2009-07-04T06:00:00Z,27.8903,-94.0367,2.0,63.64400924,8.582085994,-99999.0,'11133222,11111222,99999999' 
TABS,ioos:station:wmo:42046:1,2009-07-04T06:30:00Z,27.8903,-94.0367,2.0,40.914498,9.329233623,-99999.0,'11133222,11111222,99999999' 
TABS,ioos:station:wmo:42046:1,2009-07-04T07:00:00Z,27.8903,-94.0367,2.0,21.92974693,7.470542149,-99999.0,'11133222,11111222,99999999' 
TABS,ioos:station:wmo:42046:1,2009-07-04T07:30:00Z,27.8903,-94.0367,2.0,40.29560329,11.38033391,-99999.0,'11111222,11111222,99999999' 
TABS,ioos:station:wmo:42046:1,2009-07-04T08:00:00Z,27.8903,-94.0367,2.0,30.34338839,12.8271314,-99999.0,'11111222,11111222,99999999' 
TABS,ioos:station:wmo:42046:1,2009-07-04T08:30:00Z,27.8903,-94.0367,2.0,32.86040845,13.21434448,-99999.0,'11111222,11111222,99999999' 
TABS,ioos:station:wmo:42046:1,2009-07-04T09:00:00Z,27.8903,-94.0367,2.0,30.40207338,16.44064476,-99999.0,'11111222,11111222,99999999' 
TABS,ioos:station:wmo:42046:1,2009-07-04T09:30:00Z,27.8903,-94.0367,2.0,40.64070758,15.81423409,-99999.0,'11111222,11111222,99999999' 
TABS,ioos:station:wmo:42046:1,2009-07-04T10:00:00Z,27.8903,-94.0367,2.0,46.19359186,19.01115462,-99999.0,'11111222,11111222,99999999' 
TABS,ioos:station:wmo:42046:1,2009-07-04T10:30:00Z,27.8903,-94.0367,2.0,51.26522895,17.88347282,-99999.0,'11111222,11111222,99999999' 
TABS,ioos:station:wmo:42046:1,2009-07-04T11:00:00Z,27.8903,-94.0367,2.0,65.36166089,8.779293821,-99999.0,'11133222,11111222,99999999' 
TABS,ioos:station:wmo:42046:1,2009-07-04T11:30:00Z,27.8903,-94.0367,2.0,63.99349439,23.39932691,-99999.0,'11111222,11111222,99999999' 
TABS,ioos:station:wmo:42046:1,2009-07-04T12:00:00Z,27.8903,-94.0367,2.0,59.57024392,25.21310175,-99999.0,'11111222,11111222,99999999' 
TABS,ioos:station:wmo:42046:1,2009-07-04T12:30:00Z,27.8903,-94.0367,2.0,62.20709775,27.12973461,-99999.0,'11111222,11111222,99999999' 
TABS,ioos:station:wmo:42046:1,2009-07-04T13:00:00Z,27.8903,-94.0367,2.0,70.33126433,28.34374181,-99999.0,'11111222,11111222,99999999' 
TABS,ioos:station:wmo:42046:1,2009-07-04T13:30:00Z,27.8903,-94.0367,2.0,66.38291947,29.47908072,-99999.0,'11111222,11111222,99999999' 
TABS,ioos:station:wmo:42046:1,2009-07-04T14:00:00Z,27.8903,-94.0367,2.0,69.4846335,31.35884245,-99999.0,'11111222,11111222,99999999' 
TABS,ioos:station:wmo:42046:1,2009-07-04T14:30:00Z,27.8903,-94.0367,2.0,72.40997536,33.88432676,-99999.0,'11111222,11111222,99999999' 
TABS,ioos:station:wmo:42046:1,2009-07-04T15:00:00Z,27.8903,-94.0367,2.0,71.45709131,33.55182558,-99999.0,'11111222,11111222,99999999' 
TABS,ioos:station:wmo:42046:1,2009-07-04T15:30:00Z,27.8903,-94.0367,2.0,72.85679583,35.3505983,-99999.0,'11111222,11111222,99999999' 
TABS,ioos:station:wmo:42046:1,2009-07-04T16:00:00Z,27.8903,-94.0367,2.0,76.03080613,37.32383287,-99999.0,'11111222,11111222,99999999' 